Weather History for Goderich, ON

Change the Weather History Date:

Saturday, November 23, 2013

  Actual Average Record
Temperature  
Mean Temperature 25 °F -  
Max Temperature 31 °F - - ()
Min Temperature 19 °F - - ()
Degree Days  
Heating Degree Days 40    
Moisture  
Dew Point 19 °F    
Average Humidity 72    
Maximum Humidity 89    
Minimum Humidity 57    
Precipitation  
Precipitation 0.04 in - - ()
Sea Level Pressure  
Sea Level Pressure 30.24 in    
Wind  
Wind Speed 18 mph ()    
Max Wind Speed 31 mph    
Max Gust Speed 48 mph    
T = Trace of Precipitation, MM = Missing Value Source: Averaged Metar Reports

Daily Weather History Graph

Daily Weather History Graph

Search for Another Location

Airport:

Trip Planner

Search our weather history database for the weather conditions in past years. The results will help you decide how hot, cold, wet, or windy it might be!

Date:

Astronomy

Nov. 23, 2013 Rise Set
Actual Time 7:31 AM EST 4:54 PM EST
Civil Twilight 7:00 AM EST 5:26 PM EST
Nautical Twilight 6:24 AM EST 6:01 PM EST
Astronomical Twilight 5:50 AM EST 6:36 PM EST
Moon 10:26 PM EST (11/23) 11:44 AM EST (11/23)
Length of Visible Light 10h 26m
Length of Day
9h 22m
Waning Gibbous, 70% of the Moon is Illuminated
Nov 23
Waning Gibbous
Nov 25
Last Quarter
Dec 2
New
Dec 9
First Quarter
Dec 17
Full

Hourly Weather History & Observations

Time (EST) Temp. Windchill Dew Point Humidity Pressure Visibility Wind Dir Wind Speed Gust Speed Precip Events Conditions
12:00 AM 34.3 °F 25.5 °F 26.2 °F 72% 30.26 in - WNW 12.7 mph - N/A   Unknown
1:00 AM 34 °F - 25 °F 59% 30.26 in - WNW 10.4 mph - -  
1:00 AM 33.6 °F 25.6 °F 25.0 °F 71% 30.26 in - WNW 10.4 mph 18.4 mph N/A   Unknown
2:00 AM 33.1 °F 23.9 °F 24.8 °F 72% 30.25 in - West 12.7 mph 19.6 mph N/A   Unknown
3:00 AM 32.0 °F 23.0 °F 22.8 °F 69% 30.23 in - West 11.5 mph - N/A   Unknown
4:00 AM 31.8 °F 21.8 °F 24.6 °F 75% 30.19 in - West 13.8 mph 19.6 mph N/A   Unknown
5:00 AM 31.8 °F 19.9 °F 25.0 °F 76% 30.17 in - West 19.6 mph 26.5 mph N/A   Unknown
6:00 AM 32.0 °F 20.5 °F 23.2 °F 70% 30.16 in - West 18.4 mph 28.8 mph N/A   Unknown
7:00 AM 31 °F - 24 °F 67% 30.15 in - West 21.9 mph - -  
7:00 AM 31.3 °F 18.5 °F 24.3 °F 75% 30.15 in - West 21.9 mph 31.1 mph N/A   Unknown
8:00 AM 30.4 °F 15.9 °F 23.7 °F 76% 30.15 in - NNW 27.6 mph 35.7 mph 0.02 in   Unknown
9:00 AM 29.3 °F 14.5 °F 18.0 °F 63% 30.18 in - NW 27.6 mph 34.5 mph N/A   Unknown
10:00 AM 28.8 °F 14.3 °F 15.6 °F 58% 30.19 in - NW 25.3 mph 35.7 mph N/A   Unknown
11:00 AM 27.0 °F 11.9 °F 16.5 °F 65% 30.20 in - NW 25.3 mph 34.5 mph N/A   Unknown
12:00 PM 26.2 °F 10.9 °F 13.6 °F 59% 30.21 in - NW 25.3 mph 34.5 mph N/A   Unknown
1:00 PM 24 °F - 15 °F 57% 30.22 in - NW 27.6 mph - -  
1:00 PM 24.4 °F 7.9 °F 14.9 °F 67% 30.22 in - NW 27.6 mph 36.8 mph N/A   Unknown
2:00 PM 23.5 °F 6.4 °F 13.1 °F 64% 30.23 in - NNW 28.8 mph 44.9 mph N/A   Unknown
3:00 PM 23.0 °F 5.7 °F 14.5 °F 70% 30.25 in - NNW 28.8 mph 41.4 mph N/A   Unknown
4:00 PM 21.4 °F 3.2 °F 12.7 °F 69% 30.27 in - NW 29.9 mph 39.1 mph N/A   Unknown
5:00 PM 21.4 °F 2.9 °F 16.3 °F 81% 30.28 in - NW 31.1 mph 41.4 mph N/A   Unknown
6:00 PM 20.8 °F 2.5 °F 16.7 °F 84% 30.30 in - NW 29.9 mph 42.6 mph N/A   Unknown
7:00 PM 20 °F - 18 °F 86% 30.30 in - NW 28.8 mph - -  
7:00 PM 20.5 °F 2.3 °F 17.6 °F 89% 30.30 in - NW 28.8 mph 48.3 mph 0.01 in   Unknown
8:00 PM 21.0 °F 3.6 °F 14.5 °F 76% 30.31 in - North 26.5 mph 36.8 mph 0.02 in   Unknown
9:00 PM 19.8 °F 4.5 °F 12.0 °F 72% 30.31 in - North 18.4 mph 28.8 mph N/A   Unknown
10:00 PM 19.8 °F 1.3 °F 16.9 °F 89% 30.33 in - NNW 28.8 mph 39.1 mph 0.01 in   Unknown
11:00 PM 19.6 °F 2.3 °F 14.2 °F 80% 30.33 in - North 24.2 mph 36.8 mph N/A   Unknown